[[{"header":{"parameterUnit":"m.s-1","parameterCategory":1,"la1":30.2991,"la2":30.254,"lo1":-89.0895,"lo2":-89.0444,"dy":0.0017,"dx":0.0017,"nx":28,"ny":28,"refTime":"2024-04-03T21:00:00:Z","depth":0,"parameterNumber":2,"parameterNumberName":"U-component_of_WINDS"},"data":[0,0,0,0,0,0,0,0,0,0,0,0,0,0,0,0,0,0,0,0,0,0,0,0,0,0,0,0,0,0,0,0,0,0,0,0,0,0,0,0,0,0,0,0,0,0,0,0,0,0,0,0,0,0,0,0,0,0,4.2014,4.2015,0,4.2098,4.2099,4.21,4.2047,4.2044,4.2042,4.204,4.2124,4.2129,4.2133,0,0,0,0,0,0,0,0,0,0,0,0,0,4.1806,4.1811,4.2014,4.2015,4.2016,4.2098,4.2099,4.2101,4.2047,4.2044,4.2041,4.2038,4.2123,4.2128,4.2134,0,0,0,0,0,0,0,0,0,0,0,0,0,4.1894,4.1812,4.2014,4.1999,4.1999,4.2098,4.21,4.2101,4.2048,4.2044,4.2041,4.2037,4.2121,4.2128,4.2134,4.2252,0,0,4.2155,4.2158,0,0,0,0,0,0,0,0,4.1889,4.1902,4.2001,4.2001,4.2,4.2058,4.2057,4.2151,4.2049,4.2029,4.204,4.2035,4.2105,4.2113,4.2137,4.2256,4.2259,4.2156,4.216,4.2163,4.2165,0,0,0,0,0,0,0,4.1883,4.1898,4.2047,4.2002,4.2002,4.1989,4.1997,4.2075,4.2087,4.2031,4.2027,4.2038,4.2104,4.2131,4.2139,4.226,4.2156,4.2162,4.2166,4.2169,4.2482,4.2486,0,0,0,0,0,0,4.1879,4.1893,4.2045,4.205,4.1935,4.1996,4.2005,4.2043,4.2086,4.2089,4.2041,4.2035,4.2121,4.2131,4.2141,4.2284,4.2163,4.2169,4.2173,4.2478,4.2483,4.2488,0,0,0,0,0,0,4.1874,4.1893,4.2041,4.1971,4.1989,4.2003,4.2047,4.2047,4.2073,4.2094,4.2096,4.2066,4.2118,4.2132,4.2225,4.2286,4.2173,4.2179,4.2473,4.248,4.2486,4.2568,0,0,0,0,0,0,4.1869,4.1891,4.1936,4.1972,4.1993,4.2124,4.2051,4.2051,4.2086,4.2079,4.2118,4.212,4.2116,4.2216,4.2232,4.2293,4.2184,4.2468,4.2476,4.2484,4.256,4.2576,4.259,0,0,0,0,0,4.1861,4.1955,4.1938,4.1957,4.2049,4.2127,4.2139,4.2133,4.2091,4.2136,4.215,4.2119,4.2276,4.2226,4.2244,4.2308,4.2464,4.2474,4.2483,4.2553,4.2573,4.259,0,0,0,0,0,0,4.1923,4.1959,4.1941,4.2049,4.2086,4.2118,4.2175,4.2154,4.2203,4.2194,4.2184,4.2194,4.2292,4.2309,4.2252,4.2425,4.2363,4.2377,4.241,4.243,4.2444,4.2439,4.219,0,0,0,0,0,4.195,4.2011,4.2039,4.2131,4.2151,4.216,4.2194,4.2187,4.2224,4.2239,4.2259,4.2297,4.2355,4.2393,4.2447,4.2562,4.2571,4.2615,4.263,4.2643,4.2655,4.2719,4.274,4.2519,4.2519,4.2519,0,0,4.2005,4.2032,4.2071,4.2145,4.2172,4.2237,4.2173,4.2243,4.2291,4.2249,4.234,4.2356,4.2397,4.2503,4.255,4.252,4.2718,4.2655,4.2664,4.267,4.2731,4.2752,4.2771,4.2525,4.2524,4.2523,0,0,4.2138,4.2164,4.2245,4.2275,4.2318,4.2324,4.2344,4.238,4.239,4.2481,4.2452,4.2509,4.2608,4.2639,4.2668,4.2817,4.2791,4.2834,4.2914,4.2977,4.2994,4.301,4.3065,4.3084,4.2846,4.2846,4.2847,0,4.22,4.2296,4.2289,4.2363,4.2397,4.2363,4.2446,4.2475,4.2534,4.2558,4.2523,4.265,4.2675,4.2788,4.2825,4.2849,4.2872,4.283,4.2993,4.3008,4.3022,4.3074,4.3095,4.2852,4.2851,4.285,4.285,0,4.2372,4.2439,4.25,4.2559,4.26,4.2677,4.2682,4.2725,4.2714,4.2724,4.2818,4.2848,4.2909,4.2935,4.2924,4.3048,4.3028,4.2994,4.2932,4.3049,4.3098,4.3117,4.2859,4.2857,4.2855,4.2854,0,0,4.2545,4.2602,4.2624,4.2652,4.2699,4.2751,4.2827,4.2888,4.2926,4.2968,4.3033,4.3119,4.3088,4.3121,4.3114,4.317,4.3288,4.3128,4.3129,4.3158,4.3429,4.3455,4.3479,4.3272,4.3275,4.3278,4.3426,0,4.2683,4.2818,4.2815,4.294,4.3003,4.2974,4.3041,4.3078,4.309,4.3145,4.3157,4.322,4.3173,4.3193,4.3247,4.3262,4.3342,4.3252,4.3333,4.3336,4.3325,4.3504,4.3532,4.3669,4.3445,4.3448,4.345,0,4.286,4.2911,4.3043,4.3083,4.3109,4.317,4.3227,4.328,4.3321,4.3326,4.3365,4.335,4.3429,4.3365,4.3475,4.3413,4.3446,4.3459,4.3464,4.3472,4.3401,4.3518,4.3713,4.3734,4.348,4.3477,4.3475,0,4.2976,4.3076,4.3169,4.3193,4.3242,4.3286,4.3308,4.3345,4.3383,4.3433,4.3458,4.3516,4.3548,4.3593,4.3595,4.3548,4.3706,4.3642,4.3714,4.3714,4.3748,4.3746,4.3953,4.3768,4.3768,4.3767,4.3767,0,4.313,4.3212,4.3222,4.3279,4.3372,4.3368,4.3459,4.3477,4.3512,4.3572,4.355,4.3607,4.3606,4.3665,4.3666,4.3758,4.3772,4.3779,4.3779,4.3782,4.3781,4.3804,4.3795,4.3773,4.3772,4.3771,4.377,0,4.3274,4.3284,4.3383,4.3422,4.3434,4.3501,4.3534,4.3589,4.36,4.3677,4.3695,4.3712,4.378,4.3787,4.3865,4.3866,4.3978,4.3967,4.3965,4.3963,4.4035,4.4029,4.4264,4.4296,4.4089,4.4091,4.4093,0,4.3372,4.3435,4.3482,4.3522,4.3547,4.3611,4.365,4.3649,4.3691,4.3745,4.3794,4.386,4.3913,4.4024,4.4043,4.4104,4.4094,4.4173,4.4103,4.4105,4.4098,4.4095,4.4102,4.4186,4.4189,4.4191,4.4192,0,4.3546,4.3548,4.3606,4.3667,4.3714,4.3762,4.3806,4.3839,4.3844,4.3893,4.3963,4.4005,4.4086,4.4153,4.4214,4.4236,4.4216,4.4214,4.4234,4.4238,4.4235,4.424,4.4003,4.4209,4.4207,4.4206,4.4205,4.4204,4.3671,4.3727,4.377,4.3835,4.3869,4.3911,4.3966,4.3985,4.4044,4.4111,4.4107,4.4185,4.4227,4.4306,4.4334,4.4396,4.4369,4.4398,4.4405,4.4413,4.4421,4.4225,4.4406,4.4406,4.4405,4.4405,4.4405,0,4.3845,4.3872,4.3932,4.3996,4.4048,4.4026,4.4074,4.4119,4.4189,4.423,4.4284,4.4366,4.4431,4.4457,4.4521,4.4566,4.4558,4.4583,4.458,4.4586,4.444,4.4417,4.4588,4.4588,4.4588,4.4588,4.4588,4.4588,4.3942,4.4036,4.4044,4.4156,4.4181,4.4259,4.4289,4.4329,4.4362,4.4455,4.451,4.4527,4.4562,4.4629,4.4689,4.4695,4.472,4.4749,4.4751,4.4614,4.4596,4.4578,4.4557,4.4754,4.4755,4.4892,4.4893,4.4894]},{"header":{"parameterUnit":"m.s-1","parameterCategory":1,"la1":30.2991,"la2":30.254,"lo1":-89.0895,"lo2":-89.0444,"dy":0.0017,"dx":0.0017,"nx":28,"ny":28,"refTime":"2024-04-03T21:00:00:Z","depth":0,"parameterNumber":3,"parameterNumberName":"V-component_of_WINDS"},"data":[0,0,0,0,0,0,0,0,0,0,0,0,0,0,0,0,0,0,0,0,0,0,0,0,0,0,0,0,0,0,0,0,0,0,0,0,0,0,0,0,0,0,0,0,0,0,0,0,0,0,0,0,0,0,0,0,0,0,-6.123,-6.1231,0,-6.1393,-6.1395,-6.1397,-6.1347,-6.1344,-6.134,-6.1337,-6.1502,-6.151,-6.1517,0,0,0,0,0,0,0,0,0,0,0,0,0,-6.0873,-6.088,-6.1229,-6.1231,-6.1234,-6.1393,-6.1395,-6.1397,-6.1348,-6.1343,-6.1339,-6.1335,-6.15,-6.1509,-6.1518,0,0,0,0,0,0,0,0,0,0,0,0,0,-6.1031,-6.0882,-6.1229,-6.1228,-6.1229,-6.1392,-6.1395,-6.1398,-6.1349,-6.1343,-6.1338,-6.1333,-6.1497,-6.1508,-6.1519,-6.1692,0,0,-6.1554,-6.1559,0,0,0,0,0,0,0,0,-6.1022,-6.1044,-6.1226,-6.1228,-6.123,-6.1344,-6.133,-6.1497,-6.135,-6.1303,-6.1337,-6.1331,-6.1454,-6.1468,-6.151,-6.17,-6.1707,-6.1555,-6.1562,-6.1567,-6.157,0,0,0,0,0,0,0,-6.1011,-6.1037,-6.1294,-6.1229,-6.1231,-6.1219,-6.1236,-6.1361,-6.1405,-6.1307,-6.1304,-6.1324,-6.1454,-6.15,-6.1514,-6.171,-6.1555,-6.1565,-6.1572,-6.1576,-6.2051,-6.2057,0,0,0,0,0,0,-6.0999,-6.1028,-6.1289,-6.1299,-6.1112,-6.123,-6.1248,-6.1313,-6.1404,-6.1413,-6.1328,-6.1321,-6.1483,-6.1501,-6.1519,-6.1729,-6.1567,-6.1577,-6.1584,-6.2046,-6.2053,-6.2059,0,0,0,0,0,0,-6.0992,-6.1023,-6.1282,-6.1163,-6.1195,-6.1241,-6.1314,-6.1319,-6.1364,-6.142,-6.1427,-6.1367,-6.1479,-6.1503,-6.165,-6.1734,-6.1583,-6.1593,-6.2039,-6.2048,-6.2056,-6.215,0,0,0,0,0,0,-6.0982,-6.1021,-6.1087,-6.1165,-6.1202,-6.1411,-6.1319,-6.1326,-6.1384,-6.1377,-6.1458,-6.1466,-6.1477,-6.1634,-6.1662,-6.1747,-6.1602,-6.2032,-6.2043,-6.2053,-6.2139,-6.216,-6.2179,0,0,0,0,0,-6.0969,-6.1106,-6.1091,-6.1122,-6.1286,-6.1416,-6.1437,-6.1447,-6.1391,-6.1459,-6.1495,-6.1464,-6.1721,-6.1649,-6.168,-6.177,-6.2026,-6.204,-6.2052,-6.213,-6.2156,-6.2178,0,0,0,0,0,0,-6.1036,-6.1116,-6.11,-6.1266,-6.1335,-6.1407,-6.1492,-6.1474,-6.1559,-6.1548,-6.1556,-6.1575,-6.1726,-6.1763,-6.1681,-6.1944,-6.1865,-6.1885,-6.1914,-6.1939,-6.1958,-6.1946,-6.1611,0,0,0,0,0,-6.107,-6.1169,-6.1234,-6.1374,-6.141,-6.1446,-6.1502,-6.1505,-6.1576,-6.1604,-6.165,-6.172,-6.1817,-6.188,-6.1971,-6.2145,-6.2162,-6.2222,-6.2242,-6.2258,-6.2275,-6.237,-6.2398,-6.2102,-6.2102,-6.2101,0,0,-6.1141,-6.1197,-6.1259,-6.1389,-6.1443,-6.1546,-6.147,-6.1581,-6.1658,-6.1621,-6.1763,-6.18,-6.1878,-6.2039,-6.2112,-6.2074,-6.236,-6.2274,-6.2286,-6.2295,-6.2386,-6.2414,-6.2439,-6.211,-6.2109,-6.2107,0,0,-6.1323,-6.1376,-6.1499,-6.1555,-6.1637,-6.166,-6.169,-6.1766,-6.179,-6.1933,-6.1907,-6.1998,-6.2164,-6.2221,-6.2272,-6.2478,-6.2453,-6.2508,-6.261,-6.2703,-6.2726,-6.2747,-6.2821,-6.2848,-6.2525,-6.2525,-6.2525,0,-6.1401,-6.1556,-6.1565,-6.168,-6.1738,-6.171,-6.1835,-6.1889,-6.1996,-6.2037,-6.1994,-6.2202,-6.2253,-6.2427,-6.2478,-6.252,-6.2554,-6.2498,-6.2722,-6.2743,-6.2763,-6.2834,-6.2861,-6.2531,-6.253,-6.253,-6.2529,0,-6.1648,-6.1755,-6.1845,-6.1951,-6.202,-6.2139,-6.2166,-6.2234,-6.2231,-6.2259,-6.2405,-6.2465,-6.2569,-6.2611,-6.2608,-6.2786,-6.276,-6.272,-6.2641,-6.2797,-6.2864,-6.2891,-6.254,-6.2537,-6.2536,-6.2534,0,0,-6.1875,-6.1987,-6.202,-6.2068,-6.2158,-6.2241,-6.2359,-6.2462,-6.2521,-6.2596,-6.2696,-6.2838,-6.2802,-6.286,-6.2863,-6.2945,-6.3105,-6.2894,-6.2896,-6.2932,-6.3306,-6.3336,-6.3367,-6.309,-6.3095,-6.3099,-6.3299,0,-6.2066,-6.2275,-6.2287,-6.2476,-6.2576,-6.2553,-6.2656,-6.2722,-6.2752,-6.284,-6.2872,-6.2973,-6.2917,-6.2952,-6.3032,-6.3069,-6.3181,-6.3055,-6.3182,-6.3187,-6.3164,-6.3402,-6.3434,-6.362,-6.3326,-6.333,-6.3333,0,-6.2315,-6.24,-6.26,-6.2677,-6.2719,-6.2812,-6.2908,-6.2993,-6.3068,-6.3084,-6.315,-6.3142,-6.3264,-6.3182,-6.3349,-6.3263,-6.3317,-6.3343,-6.335,-6.3362,-6.3269,-6.342,-6.3679,-6.3707,-6.3374,-6.3371,-6.3368,0,-6.2462,-6.2626,-6.2767,-6.2809,-6.2902,-6.2968,-6.301,-6.308,-6.3142,-6.3226,-6.3266,-6.3362,-6.3415,-6.349,-6.3509,-6.3447,-6.3677,-6.3596,-6.3694,-6.3693,-6.3742,-6.3739,-6.4013,-6.3777,-6.3777,-6.3776,-6.3775,0,-6.2673,-6.2796,-6.2834,-6.2921,-6.3058,-6.3072,-6.3208,-6.3245,-6.3308,-6.3402,-6.3387,-6.3475,-6.3495,-6.3587,-6.3602,-6.3739,-6.3763,-6.3779,-6.3782,-6.3781,-6.3779,-6.3815,-6.3803,-6.3783,-6.3782,-6.378,-6.3779,0,-6.2859,-6.289,-6.3042,-6.3119,-6.3141,-6.3239,-6.3304,-6.3388,-6.3416,-6.3535,-6.3563,-6.3608,-6.3716,-6.3742,-6.387,-6.3881,-6.4043,-6.4033,-6.4018,-6.4017,-6.4113,-6.4104,-6.4421,-6.4463,-6.4199,-6.4201,-6.4203,0,-6.2992,-6.3086,-6.3174,-6.3236,-6.3281,-6.3381,-6.3445,-6.3462,-6.3528,-6.3622,-6.3694,-6.3801,-6.3887,-6.406,-6.4103,-6.4201,-6.4194,-6.4298,-6.4208,-6.4205,-6.4196,-6.419,-6.42,-6.4315,-6.4318,-6.432,-6.4322,0,-6.3224,-6.3235,-6.3327,-6.3426,-6.3502,-6.358,-6.3655,-6.3706,-6.3734,-6.381,-6.3921,-6.3987,-6.4119,-6.4225,-6.4325,-6.4367,-6.435,-6.435,-6.4378,-6.4378,-6.4365,-6.4374,-6.4065,-6.4343,-6.434,-6.4339,-6.4338,-6.4337,-6.3388,-6.3471,-6.3547,-6.365,-6.3708,-6.3779,-6.3862,-6.3901,-6.3994,-6.4103,-6.4108,-6.4229,-6.4302,-6.4434,-6.4483,-6.4577,-6.4545,-6.4586,-6.4596,-6.4605,-6.4614,-6.4351,-6.4595,-6.4595,-6.4594,-6.4594,-6.4593,0,-6.362,-6.3668,-6.3763,-6.3868,-6.395,-6.3928,-6.401,-6.408,-6.4187,-6.4257,-6.4343,-6.4471,-6.4574,-6.4626,-6.4728,-6.4794,-6.4789,-6.482,-6.4815,-6.4826,-6.4637,-6.4602,-6.4823,-6.4823,-6.4823,-6.4823,-6.4823,-6.4823,-6.375,-6.389,-6.3911,-6.408,-6.4126,-6.4245,-6.4294,-6.4359,-6.4416,-6.456,-6.4646,-6.468,-6.4744,-6.4851,-6.4944,-6.4957,-6.4995,-6.5031,-6.504,-6.4862,-6.4839,-6.4816,-6.4784,-6.504,-6.504,-6.5221,-6.5223,-6.5224]}]]